XBMHH MMVR-MMPB

Flight info

Callsign XBMHH
Flight time N/A
Altitude 15500
Route PBC
Aircraft C310/L-SDFGR/S

Departure

Time 2026-04-22 05:59
Airport General Heriberto Jara International Airport (MMVR)

Arrival

Time N/A
Airport Hermanos Serdán International Airport (MMPB)
Time Latitude Longitude Altitude Speed Heading
2026-04-22 05:21 19.13947 -96.18454 115 ft 0 kts 99°
2026-04-22 05:52 19.13947 -96.18459 115 ft 2 kts 98°
2026-04-22 05:53 19.13949 -96.18475 115 ft 2 kts 94°
2026-04-22 05:53 19.13941 -96.18481 115 ft 0 kts 327°
2026-04-22 05:53 19.13941 -96.18482 114 ft 0 kts 327°
2026-04-22 05:53 19.13942 -96.18482 114 ft 1 kts 326°
2026-04-22 05:54 19.13950 -96.18488 114 ft 0 kts 325°
2026-04-22 05:54 19.13956 -96.18492 112 ft 5 kts 341°
2026-04-22 05:54 19.14024 -96.18472 115 ft 8 kts 334°
2026-04-22 05:55 19.14051 -96.18512 114 ft 0 kts 288°
2026-04-22 05:55 19.14059 -96.18537 114 ft 10 kts 312°
2026-04-22 05:55 19.14159 -96.18527 114 ft 18 kts 22°
2026-04-22 05:55 19.14214 -96.18601 111 ft 18 kts 269°
2026-04-22 05:56 19.14130 -96.18694 111 ft 21 kts 220°
2026-04-22 05:56 19.14008 -96.18805 111 ft 25 kts 223°
2026-04-22 05:56 19.13840 -96.18891 109 ft 29 kts 191°
2026-04-22 05:56 19.13634 -96.18933 114 ft 31 kts 191°
2026-04-22 05:57 19.13416 -96.18978 113 ft 33 kts 189°
2026-04-22 05:57 19.13184 -96.19025 114 ft 35 kts 192°
2026-04-22 05:57 19.12938 -96.19064 112 ft 34 kts 164°
2026-04-22 05:57 19.12852 -96.19087 111 ft 11 kts 325°
2026-04-22 05:58 19.12885 -96.19091 111 ft 0 kts 19°
2026-04-22 05:58 19.13151 -96.19024 114 ft 78 kts 11°
2026-04-22 05:58 19.13848 -96.18896 186 ft 116 kts
2026-04-22 05:58 19.14702 -96.18743 509 ft 131 kts 11°
2026-04-22 05:59 19.15618 -96.18534 860 ft 143 kts 12°
2026-04-22 05:59 19.16642 -96.18381 1221 ft 148 kts 354°
2026-04-22 05:59 19.17448 -96.18980 1654 ft 149 kts 296°
2026-04-22 05:59 19.17422 -96.20039 2090 ft 151 kts 250°
2026-04-22 06:00 19.16980 -96.21069 2396 ft 156 kts 237°
2026-04-22 06:00 19.16354 -96.22005 2741 ft 154 kts 233°
2026-04-22 06:00 19.15804 -96.22980 3031 ft 155 kts 237°
2026-04-22 06:00 19.15281 -96.23989 3278 ft 157 kts 240°
2026-04-22 06:01 19.14750 -96.24999 3488 ft 162 kts 238°
2026-04-22 06:01 19.14146 -96.26091 3452 ft 180 kts 237°
2026-04-22 06:01 19.13464 -96.27243 3442 ft 188 kts 235°
2026-04-22 06:01 19.12778 -96.28419 3550 ft 188 kts 241°
2026-04-22 06:02 19.12336 -96.29718 3662 ft 189 kts 257°
2026-04-22 06:02 19.12261 -96.31104 3771 ft 188 kts 269°
2026-04-22 06:02 19.12320 -96.32466 3893 ft 184 kts 270°
2026-04-22 06:02 19.12367 -96.33815 4008 ft 183 kts 269°
2026-04-22 06:03 19.12396 -96.35167 4130 ft 185 kts 269°
2026-04-22 06:03 19.12425 -96.36525 4253 ft 185 kts 269°
2026-04-22 06:03 19.12454 -96.37883 4373 ft 185 kts 269°
2026-04-22 06:03 19.12485 -96.39243 4498 ft 185 kts 269°
2026-04-22 06:04 19.12515 -96.40605 4615 ft 185 kts 269°
2026-04-22 06:04 19.12545 -96.41961 4737 ft 185 kts 269°
2026-04-22 06:04 19.12575 -96.43315 4857 ft 184 kts 268°
2026-04-22 06:04 19.12605 -96.44666 4976 ft 183 kts 268°
2026-04-22 06:05 19.12634 -96.46014 5095 ft 183 kts 268°
2026-04-22 06:05 19.12663 -96.47358 5213 ft 183 kts 268°
2026-04-22 06:05 19.12693 -96.48701 5334 ft 183 kts 269°
2026-04-22 06:05 19.12724 -96.50030 5452 ft 183 kts 270°
2026-04-22 06:06 19.12764 -96.51383 5520 ft 186 kts 269°
2026-04-22 06:06 19.12795 -96.52771 5526 ft 191 kts 269°
2026-04-22 06:06 19.12826 -96.54207 5524 ft 194 kts 269°
2026-04-22 06:06 19.12856 -96.55619 5526 ft 196 kts 269°
2026-04-22 06:07 19.12886 -96.57065 5527 ft 197 kts 269°
2026-04-22 06:07 19.12917 -96.58518 5530 ft 198 kts 269°
2026-04-22 06:07 19.12948 -96.59975 5540 ft 198 kts 269°
2026-04-22 06:07 19.12978 -96.61433 5535 ft 199 kts 269°
2026-04-22 06:08 19.13009 -96.62897 5536 ft 199 kts 269°
2026-04-22 06:08 19.13039 -96.64357 5502 ft 200 kts 269°
2026-04-22 06:08 19.13070 -96.65850 5388 ft 205 kts 269°
2026-04-22 06:08 19.13101 -96.67372 5272 ft 208 kts 269°
2026-04-22 06:09 19.13133 -96.68889 5263 ft 205 kts 269°
2026-04-22 06:09 19.13164 -96.70386 5267 ft 202 kts 269°
2026-04-22 06:09 19.13194 -96.71873 5269 ft 201 kts 269°
2026-04-22 06:09 19.13224 -96.73348 5269 ft 201 kts 269°
2026-04-22 06:10 19.13253 -96.74823 5274 ft 200 kts 269°
2026-04-22 06:10 19.13283 -96.76295 5269 ft 200 kts 269°
2026-04-22 06:10 19.13312 -96.77762 5275 ft 199 kts 269°
2026-04-22 06:10 19.13342 -96.79247 5271 ft 199 kts 269°
2026-04-22 06:11 19.13371 -96.80715 5277 ft 199 kts 269°
2026-04-22 06:11 19.13400 -96.82181 5281 ft 200 kts 269°
2026-04-22 06:11 19.13430 -96.83650 5283 ft 200 kts 270°
2026-04-22 06:11 19.13458 -96.85119 5281 ft 199 kts 270°
2026-04-22 06:12 19.13487 -96.86585 5286 ft 200 kts 270°
2026-04-22 06:12 19.13515 -96.88060 5290 ft 200 kts 270°
2026-04-22 06:12 19.13545 -96.89530 5292 ft 200 kts 270°
2026-04-22 06:12 19.13574 -96.90997 5292 ft 200 kts 270°
2026-04-22 06:13 19.13601 -96.92465 5307 ft 199 kts 270°
2026-04-22 06:13 19.13629 -96.93932 5307 ft 200 kts 270°
2026-04-22 06:13 19.13657 -96.95402 5309 ft 200 kts 270°
2026-04-22 06:13 19.13685 -96.96870 5309 ft 199 kts 270°
2026-04-22 06:14 19.13713 -96.98335 5307 ft 200 kts 271°
2026-04-22 06:14 19.13740 -96.99784 5434 ft 193 kts 271°
2026-04-22 06:14 19.13767 -97.01188 5626 ft 188 kts 271°
2026-04-22 06:14 19.13791 -97.02544 5844 ft 182 kts 271°
2026-04-22 06:15 19.13816 -97.03849 6130 ft 173 kts 271°
2026-04-22 06:15 19.13838 -97.05096 6440 ft 166 kts 271°
2026-04-22 06:15 19.13860 -97.06299 6747 ft 161 kts 270°
2026-04-22 06:15 19.13880 -97.07465 7059 ft 157 kts 270°
2026-04-22 06:16 19.13901 -97.08611 7348 ft 154 kts 271°
2026-04-22 06:16 19.13921 -97.09766 7429 ft 167 kts 271°
2026-04-22 06:16 19.13945 -97.11039 7415 ft 179 kts 271°
2026-04-22 06:16 19.13971 -97.12388 7415 ft 186 kts 271°
2026-04-22 06:17 19.13995 -97.13769 7409 ft 189 kts 271°
2026-04-22 06:17 19.14021 -97.15173 7405 ft 192 kts 271°
2026-04-22 06:17 19.14046 -97.16548 7793 ft 154 kts 270°
2026-04-22 06:17 19.14059 -97.17450 8759 ft 116 kts 274°
2026-04-22 06:18 19.14049 -97.18280 9020 ft 114 kts 263°
2026-04-22 06:18 19.13913 -97.19051 9336 ft 101 kts 260°
2026-04-22 06:18 19.13789 -97.19776 9609 ft 100 kts 259°
2026-04-22 06:18 19.13703 -97.20498 9894 ft 99 kts 265°
2026-04-22 06:19 19.13657 -97.21221 10157 ft 98 kts 269°
2026-04-22 06:19 19.13665 -97.21982 10325 ft 110 kts 267°
2026-04-22 06:19 19.13644 -97.22750 10687 ft 100 kts 269°
2026-04-22 06:19 19.13627 -97.23494 10813 ft 107 kts 270°
2026-04-22 06:20 19.13564 -97.24248 11051 ft 103 kts 266°
2026-04-22 06:20 19.13463 -97.25030 11242 ft 109 kts 259°
2026-04-22 06:20 19.13258 -97.25754 11554 ft 101 kts 250°
2026-04-22 06:20 19.12867 -97.26411 11658 ft 107 kts 229°
2026-04-22 06:21 19.12542 -97.26972 11903 ft 32 kts 343°
2026-04-22 06:21 19.12540 -97.26999 11912 ft 0 kts 273°